User: anonymous   Login
Location: Saint Peter Port
(49.4500°N, 2.5330°W)
Time: 06:46:52
(UTC+00:00)
Language:

Cosmos 2242 Rocket - Orbit

View from above orbital plane
View from above orbital plane
View from above satellite
View from above satellite

Ground track
Ground track

The orbit data is extracted from the following two-line orbital elements,

1 22627U 93024B   16040.55604054  .00000287  00000-0  36409-4 0  9990
2 22627  82.5219 198.4903 0024485 141.9439 285.1777 14.77996171229233
Epoch (UTC): 09 February 2016 13:20:41
Eccentricity: 0.0024485
inclination: 82.5219°
perigee height: 618 km
apogee height: 653 km
right ascension of ascending node: 198.4903°
argument of perigee: 141.9439°
revolutions per day: 14.77996171
mean anomaly at epoch: 285.1777°
orbit number at epoch: 22923

The dashed part of the orbit path shows where the satellite is in the earth's shadow,  

DLR